Location: Spruce Knob
(38.6995°N, 79.5330°W)
Time: 07:35:57
(UTC-05:00)

PCSat - Visible Passes

Search period start: 28 November 2023 00:00
Search period end: 08 December 2023 00:00
Orbit: 784 x 792 km, 67.0° (Epoch: 27 November)

Date Brightness Start Highest point End Pass type
(mag) Time Alt. Az. Time Alt. Az. Time Alt. Az.
28 Nov 12.8 04:15:39 10° ESE 04:15:57 10° ESE 04:16:17 10° E visible
28 Nov 9.6 05:53:03 10° SSW 05:58:27 89° ESE 06:03:53 10° NNE visible
29 Nov 10.0 05:21:41 10° SSW 05:27:00 63° ESE 05:32:22 10° NE visible
30 Nov 10.6 04:50:31 10° S 04:55:36 44° ESE 05:00:44 10° NE visible
30 Nov 10.5 06:34:38 10° WSW 06:39:07 26° NW 06:43:38 10° N visible
01 Dec 11.2 04:21:01 17° SSE 04:24:15 31° ESE 04:28:58 10° NE visible
01 Dec 10.1 06:02:34 10° WSW 06:07:29 35° NW 06:12:27 10° NNE visible
02 Dec 11.7 03:53:10 22° ESE 03:53:10 22° ESE 03:56:59 10° ENE visible
02 Dec 9.7 05:33:59 33° WSW 05:35:54 48° WNW 05:41:09 10° NNE visible
03 Dec 12.5 03:24:16 11° ENE 03:24:16 11° ENE 03:24:39 10° ENE visible
03 Dec 9.6 05:05:02 60° NNW 05:05:02 60° NNW 05:09:47 10° NNE visible
03 Dec 11.4 06:47:03 10° WNW 06:48:46 11° NW 06:50:30 10° NNW visible
04 Dec 10.9 04:35:36 31° NNE 04:35:36 31° NNE 04:38:20 10° NNE visible
04 Dec 11.1 06:16:20 15° NW 06:16:58 15° NW 06:20:04 10° N visible
05 Dec 12.0 04:05:51 15° NE 04:05:51 15° NE 04:06:47 10° NE visible
05 Dec 11.1 05:46:34 18° NNW 05:46:34 18° NNW 05:49:10 10° N visible
06 Dec 11.4 05:16:36 16° N 05:16:36 16° N 05:18:05 10° N visible
07 Dec 11.9 04:46:29 12° N 04:46:29 12° N 04:46:52 10° NNE visible
